TimeEDT,TemperatureF,Dew PointF,Humidity,Sea Level PressureIn,VisibilityMPH,Wind Direction,Wind SpeedMPH,Gust SpeedMPH,PrecipitationIn,Events,Conditions,WindDirDegrees,DateUTC
12:51 AM,37.0,8.1,30,29.93,10.0,NW,24.2,31.1,N/A,,Clear,320,2013-04-02 04:51:00
1:51 AM,36.0,9.0,33,29.95,10.0,NW,21.9,-,N/A,,Clear,310,2013-04-02 05:51:00
2:51 AM,36.0,9.0,33,29.95,10.0,WNW,15.0,-,N/A,,Clear,300,2013-04-02 06:51:00
3:51 AM,35.1,9.0,34,29.95,10.0,WNW,10.4,20.7,N/A,,Clear,300,2013-04-02 07:51:00
4:51 AM,34.0,10.0,37,29.96,10.0,WNW,9.2,-,N/A,,Clear,290,2013-04-02 08:51:00
5:51 AM,34.0,10.0,37,29.97,10.0,West,12.7,-,N/A,,Partly Cloudy,280,2013-04-02 09:51:00
6:51 AM,34.0,10.0,37,30.00,10.0,NW,12.7,-,N/A,,Scattered Clouds,310,2013-04-02 10:51:00
7:51 AM,35.1,12.0,39,30.01,10.0,NW,12.7,-,N/A,,Scattered Clouds,310,2013-04-02 11:51:00
8:51 AM,37.0,14.0,39,30.03,10.0,WNW,11.5,21.9,N/A,,Partly Cloudy,300,2013-04-02 12:51:00
9:51 AM,37.0,12.0,36,30.03,10.0,WNW,19.6,27.6,N/A,,Scattered Clouds,290,2013-04-02 13:51:00
10:51 AM,37.9,12.9,36,30.03,10.0,West,18.4,28.8,N/A,,Scattered Clouds,260,2013-04-02 14:51:00
11:51 AM,41.0,10.9,29,30.02,10.0,West,25.3,35.7,N/A,,Scattered Clouds,270,2013-04-02 15:51:00
12:51 PM,42.1,10.9,28,30.01,10.0,WNW,19.6,29.9,N/A,,Scattered Clouds,290,2013-04-02 16:51:00
1:51 PM,43.0,10.0,26,29.99,10.0,West,18.4,26.5,N/A,,Scattered Clouds,270,2013-04-02 17:51:00
2:51 PM,43.0,8.1,24,29.98,10.0,West,21.9,29.9,N/A,,Scattered Clouds,280,2013-04-02 18:51:00
3:51 PM,44.1,8.1,23,29.97,10.0,West,18.4,29.9,N/A,,Scattered Clouds,260,2013-04-02 19:51:00
4:51 PM,44.1,6.1,21,29.98,10.0,West,19.6,24.2,N/A,,Scattered Clouds,270,2013-04-02 20:51:00
5:51 PM,43.0,6.1,22,29.99,10.0,West,19.6,28.8,N/A,,Scattered Clouds,270,2013-04-02 21:51:00
6:51 PM,43.0,5.0,21,30.01,10.0,WNW,19.6,28.8,N/A,,Partly Cloudy,290,2013-04-02 22:51:00
7:51 PM,42.1,5.0,22,30.03,10.0,West,12.7,-,N/A,,Partly Cloudy,280,2013-04-02 23:51:00
9:51 PM,39.9,8.1,27,30.06,10.0,West,17.3,21.9,N/A,,Partly Cloudy,280,2013-04-03 01:51:00
10:51 PM,39.9,9.0,28,30.08,10.0,West,13.8,24.2,N/A,,Partly Cloudy,270,2013-04-03 02:51:00
11:51 PM,39.0,9.0,29,30.09,10.0,WNW,16.1,-,N/A,,Partly Cloudy,290,2013-04-03 03:51:00